Location: Vale
(35.4830°N, 81.3830°W)
Time: 22:56:34
(UTC-04:00)

SR - All Passes

Search period start: 25 October 2014 00:00
Search period end: 03 November 2014 23:00
Orbit: 576 x 888 km, 66.7° (Epoch: 25 October)

Date Brightness Start Highest point End Pass type
(mag) Time Alt. Az. Time Alt. Az. Time Alt. Az.
25 Oct - 00:00:00 54° ENE 00:00:02 54° ENE 00:04:46 10° SE night (unlit)
25 Oct - 01:38:43 10° WNW 01:41:32 15° WSW 01:44:13 10° SW night (unlit)
25 Oct - 14:20:51 10° SSW 14:26:41 74° ESE 14:32:39 10° NNE daylight
25 Oct - 16:05:29 10° W 16:09:30 18° NW 16:13:31 10° N daylight
25 Oct - 23:06:54 10° N 23:11:27 28° NE 23:15:38 10° ESE night (unlit)
26 Oct - 00:49:01 10° NW 00:53:36 32° WSW 00:57:50 10° S night (unlit)
26 Oct - 13:33:09 10° S 13:38:30 38° ESE 13:43:57 10° NE daylight
26 Oct - 15:15:31 10° WSW 15:20:44 32° NW 15:26:01 10° N daylight
26 Oct - 22:19:36 10° N 22:22:38 15° NE 22:25:32 10° E visible
27 Oct - 00:00:14 10° NNW 00:05:29 71° WSW 00:10:13 10° SSE night (unlit)
27 Oct - 12:46:26 10° SSE 12:50:28 19° ESE 12:54:33 10° ENE daylight
27 Oct - 14:26:23 10° SW 14:32:11 58° WNW 14:38:04 10° NNE daylight
27 Oct - 16:15:08 10° NW 16:15:37 10° NW 16:16:06 10° NW daylight
27 Oct - 23:11:56 10° NNW 23:17:08 55° ENE 23:21:50 10° SE night (unlit)
28 Oct - 00:55:56 10° WNW 00:58:37 15° WSW 01:01:11 10° SW night (unlit)
28 Oct - 13:37:57 10° SSW 13:43:48 76° ESE 13:49:46 10° NNE daylight
28 Oct - 15:22:39 10° W 15:26:37 18° NW 15:30:36 10° N daylight
28 Oct - 22:24:01 10° N 22:28:33 28° NE 22:32:43 10° ESE visible
29 Oct - 00:06:09 10° NW 00:10:41 32° WSW 00:14:51 10° S night (unlit)
29 Oct - 12:50:14 10° S 12:55:36 39° ESE 13:01:04 10° NE daylight
29 Oct - 14:32:39 10° WSW 14:37:51 32° NW 14:43:06 10° N daylight
29 Oct - 21:36:42 10° N 21:39:44 15° NE 21:42:37 10° E visible
29 Oct - 23:17:22 10° NNW 23:22:34 70° WSW 23:27:16 10° SSE night (unlit)
30 Oct - 12:03:28 10° SSE 12:07:34 20° ESE 12:11:42 10° ENE daylight
30 Oct - 13:43:29 10° SW 13:49:17 57° WNW 13:55:09 10° NNE daylight
30 Oct - 22:29:02 10° NNW 22:34:13 55° ENE 22:38:53 10° SE visible
31 Oct - 00:13:07 10° WNW 00:15:40 14° WSW 00:18:07 10° SW night (unlit)
31 Oct - 12:55:02 10° SSW 13:00:54 77° ESE 13:06:52 10° NNE daylight
31 Oct - 14:39:48 10° W 14:43:44 18° NW 14:47:39 10° N daylight
31 Oct - 21:41:07 10° N 21:45:37 28° NE 21:49:47 10° ESE visible
31 Oct - 23:23:16 10° NW 23:27:44 31° WSW 23:31:51 10° S night (unlit)
01 Nov - 12:07:17 10° S 12:12:41 39° ESE 12:18:10 10° NE daylight
01 Nov - 13:49:45 10° WSW 13:54:57 31° NW 14:00:10 10° N daylight
01 Nov - 20:53:47 10° N 20:56:48 15° NE 20:59:42 10° E visible
01 Nov - 22:34:27 10° NNW 22:39:37 68° WSW 22:44:17 10° SSE visible
02 Nov - 10:20:29 10° SSE 10:24:38 20° ESE 10:28:49 10° ENE daylight
02 Nov - 12:00:34 10° SW 12:06:22 57° WNW 12:12:13 10° NNE daylight
02 Nov - 20:46:07 10° NNW 20:51:16 56° ENE 20:55:55 10° SE visible
02 Nov - 22:30:17 10° WNW 22:32:42 14° WSW 22:35:02 10° SW night (unlit)
03 Nov - 11:12:05 10° SSW 11:17:58 78° ESE 11:23:56 10° NNE daylight
03 Nov - 12:56:56 10° W 13:00:49 18° NW 13:04:41 10° N daylight
03 Nov - 19:58:11 10° N 20:02:40 28° NE 20:06:49 10° ESE visible
03 Nov - 21:40:22 10° NW 21:44:46 30° WSW 21:48:50 10° SSW visible
